Time,TemperatureF,DewpointF,PressureIn,WindDirection,WindDirectionDegrees,WindSpeedMPH,WindSpeedGustMPH,Humidity,HourlyPrecipIn,Conditions,Clouds,dailyrainin,SoftwareType,DateUTC
2013-04-03 00:02:00,39.0,19.0,30.22,North,360,0.0,0.0,45,0.00,,,0.00,,2013-04-03 05:02:00,
2013-04-03 00:12:00,39.0,19.0,30.22,North,360,0.0,0.0,45,0.00,,,0.00,,2013-04-03 05:12:00,
2013-04-03 00:22:00,39.0,19.0,30.22,North,360,0.0,0.0,45,0.00,,,0.00,,2013-04-03 05:22:00,
2013-04-03 00:32:00,38.0,20.0,30.24,North,360,0.0,0.0,47,0.00,,,0.00,,2013-04-03 05:32:00,
2013-04-03 00:42:00,38.0,20.0,30.24,North,360,0.0,0.0,47,0.00,,,0.00,,2013-04-03 05:42:00,
2013-04-03 00:52:00,38.0,20.0,30.24,North,360,0.0,0.0,47,0.00,,,0.00,,2013-04-03 05:52:00,
2013-04-03 01:02:00,37.0,20.0,30.24,NE,54,1.0,2.0,50,0.00,,,0.00,,2013-04-03 06:02:00,
2013-04-03 01:12:00,37.0,20.0,30.24,NE,54,1.0,2.0,50,0.00,,,0.00,,2013-04-03 06:12:00,
2013-04-03 01:22:00,37.0,20.0,30.24,NE,54,1.0,2.0,50,0.00,,,0.00,,2013-04-03 06:22:00,
2013-04-03 01:32:00,36.0,20.0,30.23,North,360,0.0,0.0,51,0.00,,,0.00,,2013-04-03 06:32:00,
2013-04-03 01:42:00,36.0,20.0,30.23,North,360,0.0,0.0,51,0.00,,,0.00,,2013-04-03 06:42:00,
2013-04-03 01:52:00,36.0,20.0,30.23,North,360,0.0,0.0,51,0.00,,,0.00,,2013-04-03 06:52:00,
2013-04-03 02:02:00,36.0,20.0,30.23,North,360,0.0,0.0,52,0.00,,,0.00,,2013-04-03 07:02:00,
2013-04-03 02:12:00,36.0,20.0,30.23,North,360,0.0,0.0,52,0.00,,,0.00,,2013-04-03 07:12:00,
2013-04-03 02:23:00,36.0,20.0,30.23,North,360,0.0,0.0,52,0.00,,,0.00,,2013-04-03 07:23:00,
2013-04-03 02:32:00,36.0,20.0,30.23,North,360,0.0,0.0,52,0.00,,,0.00,,2013-04-03 07:32:00,
2013-04-03 02:42:00,36.0,20.0,30.23,North,360,0.0,0.0,52,0.00,,,0.00,,2013-04-03 07:42:00,
2013-04-03 02:53:00,36.0,20.0,30.23,North,360,0.0,0.0,52,0.00,,,0.00,,2013-04-03 07:53:00,
2013-04-03 03:03:00,35.0,20.0,30.24,North,360,0.0,0.0,53,0.00,,,0.00,,2013-04-03 08:03:00,
2013-04-03 03:12:00,35.0,20.0,30.24,North,360,0.0,0.0,53,0.00,,,0.00,,2013-04-03 08:12:00,
2013-04-03 03:22:00,35.0,20.0,30.24,North,360,0.0,0.0,53,0.00,,,0.00,,2013-04-03 08:22:00,
2013-04-03 03:32:00,35.0,20.0,30.24,North,360,0.0,0.0,54,0.00,,,0.00,,2013-04-03 08:32:00,
2013-04-03 03:42:00,35.0,20.0,30.24,North,360,0.0,0.0,54,0.00,,,0.00,,2013-04-03 08:42:00,
2013-04-03 03:52:00,35.0,20.0,30.24,North,360,0.0,0.0,54,0.00,,,0.00,,2013-04-03 08:52:00,
2013-04-03 04:02:00,35.0,20.0,30.24,NE,54,2.0,2.0,55,0.00,,,0.00,,2013-04-03 09:02:00,
2013-04-03 04:12:00,35.0,20.0,30.24,NE,54,2.0,2.0,55,0.00,,,0.00,,2013-04-03 09:12:00,
2013-04-03 04:22:00,35.0,20.0,30.24,NE,54,2.0,2.0,55,0.00,,,0.00,,2013-04-03 09:22:00,
2013-04-03 04:33:00,35.0,22.0,30.25,NE,43,3.0,4.0,58,0.00,,,0.00,,2013-04-03 09:33:00,
2013-04-03 04:43:00,35.0,22.0,30.25,NE,43,3.0,4.0,58,0.00,,,0.00,,2013-04-03 09:43:00,
2013-04-03 04:53:00,35.0,22.0,30.25,NE,43,3.0,4.0,58,0.00,,,0.00,,2013-04-03 09:53:00,
2013-04-03 05:03:00,35.0,23.0,30.26,NE,43,2.0,3.0,60,0.00,,,0.00,,2013-04-03 10:03:00,
2013-04-03 05:12:00,35.0,23.0,30.26,NE,43,2.0,3.0,60,0.00,,,0.00,,2013-04-03 10:12:00,
2013-04-03 05:22:00,35.0,23.0,30.26,NE,43,2.0,3.0,60,0.00,,,0.00,,2013-04-03 10:22:00,
2013-04-03 05:33:00,34.0,22.0,30.26,NE,46,3.0,3.0,61,0.00,,,0.00,,2013-04-03 10:33:00,
2013-04-03 05:42:00,34.0,22.0,30.26,NE,46,3.0,3.0,61,0.00,,,0.00,,2013-04-03 10:42:00,
2013-04-03 05:53:00,34.0,22.0,30.26,NE,46,3.0,3.0,61,0.00,,,0.00,,2013-04-03 10:53:00,
2013-04-03 06:02:00,34.0,22.0,30.27,NE,49,3.0,3.0,62,0.00,,,0.00,,2013-04-03 11:02:00,
2013-04-03 06:12:00,34.0,22.0,30.27,NE,49,3.0,3.0,62,0.00,,,0.00,,2013-04-03 11:12:00,
2013-04-03 06:22:00,34.0,22.0,30.27,NE,49,3.0,3.0,62,0.00,,,0.00,,2013-04-03 11:22:00,
2013-04-03 06:32:00,33.0,22.0,30.27,NE,53,3.0,4.0,63,0.00,,,0.00,,2013-04-03 11:32:00,
2013-04-03 06:42:00,33.0,22.0,30.27,NE,53,3.0,4.0,63,0.00,,,0.00,,2013-04-03 11:42:00,
2013-04-03 06:53:00,33.0,22.0,30.27,NE,53,3.0,4.0,63,0.00,,,0.00,,2013-04-03 11:53:00,
2013-04-03 07:02:00,33.0,21.0,30.27,NE,45,1.0,2.0,62,0.00,,,0.00,,2013-04-03 12:02:00,
2013-04-03 07:12:00,33.0,21.0,30.27,NE,45,1.0,2.0,62,0.00,,,0.00,,2013-04-03 12:12:00,
2013-04-03 07:22:00,33.0,21.0,30.27,NE,45,1.0,2.0,62,0.00,,,0.00,,2013-04-03 12:22:00,
2013-04-03 07:32:00,33.0,21.0,30.30,NE,45,3.0,3.0,62,0.00,,,0.00,,2013-04-03 12:32:00,
2013-04-03 07:42:00,33.0,21.0,30.30,NE,45,3.0,3.0,62,0.00,,,0.00,,2013-04-03 12:42:00,
2013-04-03 07:52:00,33.0,21.0,30.30,NE,45,3.0,3.0,62,0.00,,,0.00,,2013-04-03 12:52:00,
2013-04-03 08:02:00,34.0,22.0,30.31,NE,45,3.0,4.0,61,0.00,,,0.00,,2013-04-03 13:02:00,
2013-04-03 08:12:00,34.0,22.0,30.31,NE,45,3.0,4.0,61,0.00,,,0.00,,2013-04-03 13:12:00,
2013-04-03 08:22:00,34.0,22.0,30.31,NE,45,3.0,4.0,61,0.00,,,0.00,,2013-04-03 13:22:00,
2013-04-03 08:32:00,35.0,23.0,30.31,ENE,58,2.0,3.0,60,0.00,,,0.00,,2013-04-03 13:32:00,
2013-04-03 08:42:00,35.0,23.0,30.31,ENE,58,2.0,3.0,60,0.00,,,0.00,,2013-04-03 13:42:00,
2013-04-03 08:52:00,35.0,23.0,30.31,ENE,58,2.0,3.0,60,0.00,,,0.00,,2013-04-03 13:52:00,
2013-04-03 09:02:00,36.0,22.0,30.29,ENE,69,3.0,5.0,56,0.00,,,0.00,,2013-04-03 14:02:00,
2013-04-03 09:12:00,36.0,22.0,30.29,ENE,69,3.0,5.0,56,0.00,,,0.00,,2013-04-03 14:12:00,
2013-04-03 09:22:00,36.0,22.0,30.29,ENE,69,3.0,5.0,56,0.00,,,0.00,,2013-04-03 14:22:00,
2013-04-03 09:32:00,39.0,20.0,30.29,ENE,57,4.0,4.0,47,0.00,,,0.00,,2013-04-03 14:32:00,
2013-04-03 09:42:00,39.0,20.0,30.29,ENE,57,4.0,4.0,47,0.00,,,0.00,,2013-04-03 14:42:00,
2013-04-03 09:52:00,39.0,20.0,30.29,ENE,57,4.0,4.0,47,0.00,,,0.00,,2013-04-03 14:52:00,
2013-04-03 10:02:00,40.0,20.0,30.31,East,87,4.0,4.0,45,0.00,,,0.00,,2013-04-03 15:02:00,
2013-04-03 10:12:00,40.0,20.0,30.31,East,87,4.0,4.0,45,0.00,,,0.00,,2013-04-03 15:12:00,
2013-04-03 10:23:00,40.0,20.0,30.31,East,87,4.0,4.0,45,0.00,,,0.00,,2013-04-03 15:23:00,
2013-04-03 10:33:00,43.0,22.0,30.29,ENE,57,3.0,5.0,42,0.00,,,0.00,,2013-04-03 15:33:00,
2013-04-03 10:42:00,43.0,22.0,30.29,ENE,57,3.0,5.0,42,0.00,,,0.00,,2013-04-03 15:42:00,
2013-04-03 10:53:00,43.0,22.0,30.29,ENE,57,3.0,5.0,42,0.00,,,0.00,,2013-04-03 15:53:00,
2013-04-03 11:03:00,43.0,20.0,30.30,NE,49,4.0,5.0,40,0.00,,,0.00,,2013-04-03 16:03:00,
2013-04-03 11:12:00,43.0,20.0,30.30,NE,49,4.0,5.0,40,0.00,,,0.00,,2013-04-03 16:12:00,
2013-04-03 11:24:00,43.0,20.0,30.30,NE,49,4.0,5.0,40,0.00,,,0.00,,2013-04-03 16:24:00,
2013-04-03 11:32:00,45.0,20.0,30.30,East,81,4.0,5.0,37,0.00,,,0.00,,2013-04-03 16:32:00,
2013-04-03 11:43:00,45.0,20.0,30.30,East,81,4.0,5.0,37,0.00,,,0.00,,2013-04-03 16:43:00,
2013-04-03 11:53:00,45.0,20.0,30.30,East,81,4.0,5.0,37,0.00,,,0.00,,2013-04-03 16:53:00,
2013-04-03 12:03:00,46.0,21.0,30.31,ESE,118,4.0,4.0,36,0.00,,,0.00,,2013-04-03 17:03:00,
2013-04-03 12:13:00,46.0,21.0,30.31,ESE,118,4.0,4.0,36,0.00,,,0.00,,2013-04-03 17:13:00,
2013-04-03 12:23:00,46.0,21.0,30.31,ESE,118,4.0,4.0,36,0.00,,,0.00,,2013-04-03 17:23:00,
2013-04-03 12:33:00,48.0,22.0,30.29,ENE,70,3.0,4.0,35,0.00,,,0.00,,2013-04-03 17:33:00,
2013-04-03 12:45:00,48.0,22.0,30.29,ENE,70,3.0,4.0,35,0.00,,,0.00,,2013-04-03 17:45:00,
2013-04-03 12:54:00,48.0,22.0,30.29,ENE,70,3.0,4.0,35,0.00,,,0.00,,2013-04-03 17:54:00,
2013-04-03 13:02:00,48.0,21.0,30.29,ESE,109,2.0,5.0,34,0.00,,,0.00,,2013-04-03 18:02:00,
2013-04-03 13:12:00,48.0,21.0,30.29,ESE,109,2.0,5.0,34,0.00,,,0.00,,2013-04-03 18:12:00,
2013-04-03 13:22:00,48.0,21.0,30.29,ESE,109,2.0,5.0,34,0.00,,,0.00,,2013-04-03 18:22:00,
2013-04-03 13:33:00,48.0,21.0,30.28,ESE,106,3.0,4.0,34,0.00,,,0.00,,2013-04-03 18:33:00,
2013-04-03 13:42:00,48.0,21.0,30.28,ESE,106,3.0,4.0,34,0.00,,,0.00,,2013-04-03 18:42:00,
2013-04-03 13:52:00,48.0,21.0,30.28,ESE,106,3.0,4.0,34,0.00,,,0.00,,2013-04-03 18:52:00,
2013-04-03 14:03:00,49.0,22.0,30.27,NE,34,1.0,3.0,34,0.00,,,0.00,,2013-04-03 19:03:00,
2013-04-03 14:12:00,49.0,22.0,30.27,NE,34,1.0,3.0,34,0.00,,,0.00,,2013-04-03 19:12:00,
2013-04-03 14:22:00,49.0,22.0,30.27,NE,34,1.0,3.0,34,0.00,,,0.00,,2013-04-03 19:22:00,
2013-04-03 14:32:00,48.0,22.0,30.27,NNE,24,2.0,6.0,35,0.00,,,0.00,,2013-04-03 19:32:00,
2013-04-03 14:42:00,48.0,22.0,30.27,NNE,24,2.0,6.0,35,0.00,,,0.00,,2013-04-03 19:42:00,
2013-04-03 14:52:00,48.0,22.0,30.27,NNE,24,2.0,6.0,35,0.00,,,0.00,,2013-04-03 19:52:00,
2013-04-03 15:02:00,49.0,23.0,30.25,NE,45,3.0,5.0,35,0.00,,,0.00,,2013-04-03 20:02:00,
2013-04-03 15:12:00,49.0,23.0,30.25,NE,45,3.0,5.0,35,0.00,,,0.00,,2013-04-03 20:12:00,
2013-04-03 15:23:00,49.0,23.0,30.25,NE,45,3.0,5.0,35,0.00,,,0.00,,2013-04-03 20:23:00,
2013-04-03 15:32:00,49.0,23.0,30.24,East,85,2.0,5.0,36,0.00,,,0.00,,2013-04-03 20:32:00,
2013-04-03 15:42:00,49.0,23.0,30.24,East,85,2.0,5.0,36,0.00,,,0.00,,2013-04-03 20:42:00,
2013-04-03 15:53:00,49.0,23.0,30.24,East,85,2.0,5.0,36,0.00,,,0.00,,2013-04-03 20:53:00,
2013-04-03 16:02:00,49.0,23.0,30.23,NE,44,3.0,5.0,35,0.00,,,0.00,,2013-04-03 21:02:00,
2013-04-03 16:12:00,49.0,23.0,30.23,NE,44,3.0,5.0,35,0.00,,,0.00,,2013-04-03 21:12:00,
2013-04-03 16:22:00,49.0,23.0,30.23,NE,44,3.0,5.0,35,0.00,,,0.00,,2013-04-03 21:22:00,
2013-04-03 16:32:00,49.0,24.0,30.22,NNE,21,5.0,5.0,37,0.00,,,0.00,,2013-04-03 21:32:00,
2013-04-03 16:42:00,49.0,24.0,30.22,NNE,21,5.0,5.0,37,0.00,,,0.00,,2013-04-03 21:42:00,
2013-04-03 16:52:00,49.0,24.0,30.22,NNE,21,5.0,5.0,37,0.00,,,0.00,,2013-04-03 21:52:00,
2013-04-03 17:02:00,49.0,23.0,30.22,NNE,33,2.0,3.0,36,0.00,,,0.00,,2013-04-03 22:02:00,
2013-04-03 17:12:00,49.0,23.0,30.22,NNE,33,2.0,3.0,36,0.00,,,0.00,,2013-04-03 22:12:00,
2013-04-03 17:22:00,49.0,23.0,30.22,NNE,33,2.0,3.0,36,0.00,,,0.00,,2013-04-03 22:22:00,
2013-04-03 17:32:00,49.0,23.0,30.21,North,10,1.0,4.0,36,0.00,,,0.00,,2013-04-03 22:32:00,
2013-04-03 17:42:00,49.0,23.0,30.21,North,10,1.0,4.0,36,0.00,,,0.00,,2013-04-03 22:42:00,
2013-04-03 17:52:00,49.0,23.0,30.21,North,10,1.0,4.0,36,0.00,,,0.00,,2013-04-03 22:52:00,
2013-04-03 18:02:00,49.0,23.0,30.20,North,2,3.0,5.0,36,0.00,,,0.00,,2013-04-03 23:02:00,
2013-04-03 18:12:00,49.0,23.0,30.20,North,2,3.0,5.0,36,0.00,,,0.00,,2013-04-03 23:12:00,
2013-04-03 18:22:00,49.0,23.0,30.20,North,2,3.0,5.0,36,0.00,,,0.00,,2013-04-03 23:22:00,
2013-04-03 18:32:00,49.0,24.0,30.19,NE,52,2.0,4.0,37,0.00,,,0.00,,2013-04-03 23:32:00,
2013-04-03 18:42:00,49.0,24.0,30.19,NE,52,2.0,4.0,37,0.00,,,0.00,,2013-04-03 23:42:00,
2013-04-03 18:54:00,49.0,24.0,30.19,NE,52,2.0,4.0,37,0.00,,,0.00,,2013-04-03 23:54:00,
2013-04-03 19:02:00,48.0,23.0,30.19,NE,42,3.0,5.0,37,0.00,,,0.00,,2013-04-04 00:02:00,
2013-04-03 19:12:00,48.0,23.0,30.19,NE,42,3.0,5.0,37,0.00,,,0.00,,2013-04-04 00:12:00,
2013-04-03 19:22:00,48.0,23.0,30.19,NE,42,3.0,5.0,37,0.00,,,0.00,,2013-04-04 00:22:00,
2013-04-03 19:32:00,48.0,21.0,30.19,ENE,76,1.0,4.0,34,0.00,,,0.00,,2013-04-04 00:32:00,
2013-04-03 19:43:00,48.0,21.0,30.19,ENE,76,1.0,4.0,34,0.00,,,0.00,,2013-04-04 00:43:00,
2013-04-03 19:52:00,48.0,21.0,30.19,ENE,76,1.0,4.0,34,0.00,,,0.00,,2013-04-04 00:52:00,
2013-04-03 20:02:00,47.0,19.0,30.19,ENE,64,3.0,3.0,32,0.00,,,0.00,,2013-04-04 01:02:00,
2013-04-03 20:12:00,47.0,19.0,30.19,ENE,64,3.0,3.0,32,0.00,,,0.00,,2013-04-04 01:12:00,
2013-04-03 20:22:00,47.0,19.0,30.19,ENE,64,3.0,3.0,32,0.00,,,0.00,,2013-04-04 01:22:00,
2013-04-03 20:32:00,47.0,17.0,30.24,ENE,77,1.0,3.0,30,0.00,,,0.00,,2013-04-04 01:32:00,
2013-04-03 20:43:00,47.0,17.0,30.24,ENE,77,1.0,3.0,30,0.00,,,0.00,,2013-04-04 01:43:00,
2013-04-03 20:52:00,47.0,17.0,30.24,ENE,77,1.0,3.0,30,0.00,,,0.00,,2013-04-04 01:52:00,
2013-04-03 21:02:00,46.0,17.0,30.19,ENE,71,1.0,2.0,31,0.00,,,0.00,,2013-04-04 02:02:00,
2013-04-03 21:12:00,46.0,17.0,30.19,ENE,71,1.0,2.0,31,0.00,,,0.00,,2013-04-04 02:12:00,
2013-04-03 21:22:00,46.0,17.0,30.19,ENE,71,1.0,2.0,31,0.00,,,0.00,,2013-04-04 02:22:00,
2013-04-03 21:32:00,46.0,15.0,30.20,ENE,69,2.0,3.0,28,0.00,,,0.00,,2013-04-04 02:32:00,
2013-04-03 21:42:00,46.0,15.0,30.20,ENE,69,2.0,3.0,28,0.00,,,0.00,,2013-04-04 02:42:00,
2013-04-03 21:52:00,46.0,15.0,30.20,ENE,69,2.0,3.0,28,0.00,,,0.00,,2013-04-04 02:52:00,
2013-04-03 22:02:00,45.0,15.0,30.20,ENE,70,0.0,2.0,30,0.00,,,0.00,,2013-04-04 03:02:00,
2013-04-03 22:12:00,45.0,15.0,30.20,ENE,70,0.0,2.0,30,0.00,,,0.00,,2013-04-04 03:12:00,
2013-04-03 22:22:00,45.0,15.0,30.20,ENE,70,0.0,2.0,30,0.00,,,0.00,,2013-04-04 03:22:00,
2013-04-03 22:33:00,45.0,17.0,30.21,North,360,0.0,0.0,32,0.00,,,0.00,,2013-04-04 03:33:00,
2013-04-03 22:43:00,45.0,17.0,30.21,North,360,0.0,0.0,32,0.00,,,0.00,,2013-04-04 03:43:00,
2013-04-03 22:53:00,45.0,17.0,30.21,North,360,0.0,0.0,32,0.00,,,0.00,,2013-04-04 03:53:00,
2013-04-03 23:03:00,44.0,16.0,30.20,North,360,0.0,0.0,32,0.00,,,0.00,,2013-04-04 04:03:00,
2013-04-03 23:12:00,44.0,16.0,30.20,North,360,0.0,0.0,32,0.00,,,0.00,,2013-04-04 04:12:00,
2013-04-03 23:23:00,44.0,16.0,30.20,North,360,0.0,0.0,32,0.00,,,0.00,,2013-04-04 04:23:00,
2013-04-03 23:33:00,43.0,15.0,30.20,North,360,0.0,0.0,32,0.00,,,0.00,,2013-04-04 04:33:00,
2013-04-03 23:43:00,43.0,15.0,30.20,North,360,0.0,0.0,32,0.00,,,0.00,,2013-04-04 04:43:00,
2013-04-03 23:53:00,43.0,15.0,30.20,North,360,0.0,0.0,32,0.00,,,0.00,,2013-04-04 04:53:00,